CEB8812 RPSP-RJAA

Flight info

Callsign CEB8812
Flight time N/A
Altitude 39000
Route LAMOK2P LAMOK G578 GURAG A590 TUNTO/N0455F390 A590 BUBDO Y83 MOE Y81 RUTAS
Aircraft A20N/M-SDE2E3FGHIRWXY/LB1

Departure

Time 2026-05-08 02:07
Airport Bohol-Panglao International Airport (RPSP)

Arrival

Time N/A
Airport Narita International Airport (RJAA)
Time Latitude Longitude Altitude Speed Heading
2026-05-08 01:46 9.56916 123.77174 47 ft 0 kts 121°
2026-05-08 01:58 9.56923 123.77162 47 ft 2 kts 121°
2026-05-08 01:58 9.56931 123.77149 47 ft 2 kts 121°
2026-05-08 01:58 9.56939 123.77136 47 ft 2 kts 121°
2026-05-08 01:58 9.56947 123.77123 47 ft 2 kts 121°
2026-05-08 01:59 9.56954 123.77110 47 ft 2 kts 121°
2026-05-08 01:59 9.56964 123.77099 47 ft 2 kts 158°
2026-05-08 01:59 9.56980 123.77097 47 ft 2 kts 194°
2026-05-08 01:59 9.56987 123.77100 47 ft 0 kts 213°
2026-05-08 02:00 9.56972 123.77091 47 ft 6 kts 211°
2026-05-08 02:00 9.56951 123.77079 47 ft 1 kts 211°
2026-05-08 02:00 9.56950 123.77078 47 ft 0 kts 211°
2026-05-08 02:02 9.56939 123.77071 47 ft 3 kts 211°
2026-05-08 02:03 9.56903 123.77050 47 ft 7 kts 210°
2026-05-08 02:03 9.56846 123.77014 47 ft 11 kts 227°
2026-05-08 02:03 9.56855 123.76936 47 ft 12 kts 305°
2026-05-08 02:03 9.56898 123.76872 47 ft 12 kts 303°
2026-05-08 02:04 9.56913 123.76787 47 ft 14 kts 236°
2026-05-08 02:04 9.56822 123.76726 47 ft 16 kts 210°
2026-05-08 02:04 9.56713 123.76661 47 ft 19 kts 211°
2026-05-08 02:04 9.56602 123.76595 47 ft 16 kts 210°
2026-05-08 02:05 9.56517 123.76550 47 ft 14 kts 194°
2026-05-08 02:05 9.56432 123.76541 47 ft 11 kts 211°
2026-05-08 02:05 9.56447 123.76502 47 ft 9 kts
2026-05-08 02:05 9.56477 123.76519 47 ft 0 kts 32°
2026-05-08 02:06 9.56503 123.76535 47 ft 16 kts 32°
2026-05-08 02:06 9.56816 123.76723 47 ft 86 kts 31°
2026-05-08 02:07 9.57518 123.77140 48 ft 143 kts 32°
2026-05-08 02:07 9.58447 123.77692 320 ft 161 kts 33°
2026-05-08 02:07 9.59400 123.78272 912 ft 161 kts 34°
2026-05-08 02:07 9.60417 123.78704 1538 ft 165 kts
2026-05-08 02:08 9.61568 123.78494 2020 ft 173 kts 351°
2026-05-08 02:08 9.62787 123.78207 2320 ft 188 kts 353°
2026-05-08 02:08 9.64133 123.77921 2619 ft 204 kts 353°
2026-05-08 02:08 9.65594 123.77625 2919 ft 222 kts 353°
2026-05-08 02:09 9.67187 123.77310 3203 ft 244 kts 353°
2026-05-08 02:09 9.68895 123.76971 3843 ft 250 kts 353°
2026-05-08 02:09 9.70584 123.76636 4535 ft 252 kts 353°
2026-05-08 02:09 9.72336 123.76289 5205 ft 256 kts 353°
2026-05-08 02:10 9.74083 123.75944 5855 ft 260 kts 353°
2026-05-08 02:10 9.75881 123.75591 6517 ft 263 kts 353°
2026-05-08 02:10 9.77678 123.75272 7193 ft 264 kts 356°
2026-05-08 02:10 9.79510 123.75104 7816 ft 267 kts
2026-05-08 02:11 9.81434 123.75063 8179 ft 282 kts
2026-05-08 02:11 9.83417 123.75043 8695 ft 290 kts
2026-05-08 02:11 9.85454 123.75022 9352 ft 293 kts
2026-05-08 02:11 9.87508 123.74999 9997 ft 294 kts
2026-05-08 02:12 9.89562 123.75198 10492 ft 299 kts 15°
2026-05-08 02:12 9.91567 123.75883 10777 ft 311 kts 28°
2026-05-08 02:12 9.93510 123.76948 11047 ft 325 kts 32°
2026-05-08 02:12 9.95522 123.78120 11437 ft 334 kts 32°
2026-05-08 02:13 9.97525 123.79291 12023 ft 337 kts 32°
2026-05-08 02:13 9.99577 123.80484 12637 ft 338 kts 32°
2026-05-08 02:13 10.01624 123.81670 13211 ft 341 kts 31°
2026-05-08 02:13 10.03704 123.82870 13776 ft 343 kts 31°
2026-05-08 02:14 10.05783 123.84068 14301 ft 345 kts 31°
2026-05-08 02:14 10.07866 123.85269 14794 ft 348 kts 31°
2026-05-08 02:14 10.10000 123.86499 15285 ft 351 kts 31°
2026-05-08 02:14 10.12130 123.87726 15770 ft 354 kts 31°
2026-05-08 02:15 10.14289 123.88969 16240 ft 357 kts 31°
2026-05-08 02:15 10.16446 123.90211 16706 ft 359 kts 31°
2026-05-08 02:15 10.18633 123.91471 17165 ft 361 kts 31°
2026-05-08 02:15 10.20851 123.92750 17610 ft 364 kts 31°
2026-05-08 02:16 10.23040 123.94012 18048 ft 366 kts 31°
2026-05-08 02:16 10.25273 123.95300 18470 ft 369 kts 31°
2026-05-08 02:16 10.27542 123.96608 18897 ft 372 kts 31°
2026-05-08 02:16 10.29738 123.97967 19306 ft 373 kts 36°
2026-05-08 02:17 10.31825 123.99593 19725 ft 375 kts 42°
2026-05-08 02:17 10.33699 124.01422 20114 ft 377 kts 48°
2026-05-08 02:17 10.35497 124.03413 20505 ft 380 kts 49°
2026-05-08 02:17 10.37274 124.05419 20904 ft 383 kts 49°
2026-05-08 02:18 10.39040 124.07417 21303 ft 385 kts 49°
2026-05-08 02:18 10.40842 124.09454 21687 ft 388 kts 49°
2026-05-08 02:18 10.42662 124.11507 22073 ft 390 kts 49°
2026-05-08 02:18 10.44495 124.13573 22446 ft 393 kts 49°
2026-05-08 02:19 10.46314 124.15624 22814 ft 396 kts 49°
2026-05-08 02:19 10.48169 124.17714 23185 ft 399 kts 49°
2026-05-08 02:19 10.50028 124.19810 23554 ft 401 kts 49°
2026-05-08 02:19 10.51901 124.21922 23918 ft 404 kts 49°
2026-05-08 02:20 10.53784 124.24044 24273 ft 406 kts 49°
2026-05-08 02:20 10.55683 124.26187 24624 ft 409 kts 49°
2026-05-08 02:20 10.57607 124.28356 24971 ft 412 kts 49°
2026-05-08 02:20 10.59533 124.30526 25310 ft 414 kts 49°
2026-05-08 02:21 10.61450 124.32686 25640 ft 416 kts 49°
2026-05-08 02:21 10.63403 124.34888 25959 ft 419 kts 49°
2026-05-08 02:21 10.65363 124.37098 26280 ft 422 kts 49°
2026-05-08 02:21 10.67327 124.39315 26592 ft 424 kts 49°
2026-05-08 02:22 10.69297 124.41539 26903 ft 426 kts 49°
2026-05-08 02:22 10.71300 124.43803 27228 ft 428 kts 49°
2026-05-08 02:22 10.73299 124.46062 27525 ft 430 kts 49°
2026-05-08 02:22 10.75303 124.48325 27814 ft 432 kts 49°
2026-05-08 02:23 10.76623 124.49818 27995 ft 433 kts 49°
2026-05-08 02:23 10.79321 124.52865 28351 ft 436 kts 49°
2026-05-08 02:23 10.81380 124.55190 28606 ft 439 kts 49°
2026-05-08 02:23 10.83397 124.57471 28843 ft 441 kts 49°
2026-05-08 02:24 10.85473 124.59817 29085 ft 443 kts 49°
2026-05-08 02:24 10.87534 124.62148 29303 ft 445 kts 49°
2026-05-08 02:24 10.89610 124.64493 29513 ft 447 kts 49°
2026-05-08 02:24 10.91685 124.66838 29704 ft 450 kts 49°
2026-05-08 02:25 10.93803 124.69235 29891 ft 453 kts 49°
2026-05-08 02:25 10.95896 124.71603 30152 ft 453 kts 49°
2026-05-08 02:25 10.98014 124.74002 30464 ft 452 kts 49°
2026-05-08 02:25 11.00102 124.76367 30748 ft 451 kts 49°
2026-05-08 02:26 11.02188 124.78732 31000 ft 451 kts 48°
2026-05-08 02:26 11.04302 124.81127 31231 ft 452 kts 48°
2026-05-08 02:26 11.06399 124.83504 31444 ft 453 kts 48°
2026-05-08 02:26 11.08494 124.85881 31660 ft 454 kts 48°
2026-05-08 02:27 11.10617 124.88289 31899 ft 454 kts 48°
2026-05-08 02:27 11.12720 124.90674 32134 ft 454 kts 48°
2026-05-08 02:27 11.14833 124.93072 32353 ft 454 kts 48°
2026-05-08 02:27 11.16946 124.95468 32561 ft 455 kts 47°
2026-05-08 02:28 11.19177 124.97756 32826 ft 454 kts 42°
2026-05-08 02:28 11.21601 124.99812 33117 ft 453 kts 36°
2026-05-08 02:28 11.24214 125.01630 33395 ft 452 kts 31°
2026-05-08 02:28 11.26953 125.03168 33682 ft 450 kts 25°
2026-05-08 02:29 11.29815 125.04436 33974 ft 449 kts 20°
2026-05-08 02:29 11.32774 125.05436 34256 ft 447 kts 15°
2026-05-08 02:29 11.35798 125.06327 34528 ft 447 kts 15°
2026-05-08 02:29 11.38766 125.07179 34771 ft 446 kts 15°
2026-05-08 02:30 11.41793 125.08051 35017 ft 446 kts 14°
2026-05-08 02:30 11.44784 125.08918 35253 ft 445 kts 15°
2026-05-08 02:30 11.47761 125.09786 35479 ft 445 kts 15°
2026-05-08 02:30 11.50737 125.10659 35688 ft 445 kts 15°
2026-05-08 02:31 11.53708 125.11530 35886 ft 445 kts 14°
2026-05-08 02:31 11.56667 125.12398 36077 ft 444 kts 15°
2026-05-08 02:31 11.59663 125.13277 36264 ft 444 kts 14°
2026-05-08 02:31 11.62634 125.14150 36440 ft 444 kts 15°
2026-05-08 02:32 11.65621 125.15028 36613 ft 444 kts 14°
2026-05-08 02:32 11.68608 125.15904 36793 ft 444 kts 14°
2026-05-08 02:32 11.71570 125.16773 36957 ft 443 kts 14°
2026-05-08 02:32 11.74534 125.17644 37113 ft 443 kts 14°
2026-05-08 02:33 11.77492 125.18513 37253 ft 443 kts 14°
2026-05-08 02:33 11.80480 125.19392 37359 ft 444 kts 14°
2026-05-08 02:33 11.83442 125.20262 37469 ft 444 kts 14°
2026-05-08 02:33 11.86437 125.21144 37576 ft 445 kts 14°
2026-05-08 02:34 11.92401 125.22900 37750 ft 446 kts 14°
2026-05-08 02:34 11.98420 125.24674 37918 ft 447 kts 14°
2026-05-08 02:35 12.04401 125.26435 38081 ft 448 kts 14°
2026-05-08 02:35 12.10411 125.28206 38226 ft 449 kts 14°
2026-05-08 02:36 12.16427 125.29981 38379 ft 449 kts 14°
2026-05-08 02:36 12.22445 125.31755 38529 ft 449 kts 14°
2026-05-08 02:37 12.28465 125.33534 38643 ft 450 kts 14°
2026-05-08 02:37 12.34523 125.35324 38705 ft 452 kts 14°
2026-05-08 02:38 12.40564 125.37107 38802 ft 452 kts 14°
2026-05-08 02:38 12.46640 125.38897 38879 ft 453 kts 14°
2026-05-08 02:39 12.52727 125.40692 38913 ft 454 kts 14°
2026-05-08 02:39 12.58777 125.42479 38913 ft 454 kts 14°
2026-05-08 02:40 12.64857 125.44276 38910 ft 454 kts 14°
2026-05-08 02:40 12.70964 125.46080 38912 ft 454 kts 14°
2026-05-08 02:41 12.77072 125.47888 38912 ft 455 kts 14°
2026-05-08 02:41 12.83132 125.49683 38912 ft 455 kts 14°
2026-05-08 02:42 12.89255 125.51495 38910 ft 455 kts 14°
2026-05-08 02:42 12.95333 125.53296 38908 ft 455 kts 14°
2026-05-08 02:43 13.00405 125.54799 38910 ft 455 kts 14°
2026-05-08 02:43 13.07520 125.56908 38909 ft 456 kts 14°
2026-05-08 02:44 13.13661 125.58732 38909 ft 456 kts 14°
2026-05-08 02:44 13.19771 125.60547 38910 ft 456 kts 14°
2026-05-08 02:45 13.25859 125.62357 38909 ft 456 kts 14°
2026-05-08 02:45 13.31992 125.64184 38908 ft 457 kts 14°
2026-05-08 02:46 13.38110 125.66007 38908 ft 456 kts 14°
2026-05-08 02:46 13.44209 125.67828 38908 ft 456 kts 14°
2026-05-08 02:47 13.50308 125.69648 38908 ft 457 kts 14°
2026-05-08 02:47 13.56441 125.71480 38908 ft 457 kts 14°
2026-05-08 02:48 13.62556 125.73307 38908 ft 457 kts 14°
2026-05-08 02:48 13.68681 125.75140 38908 ft 458 kts 14°
2026-05-08 02:49 13.74818 125.76977 38908 ft 457 kts 14°
2026-05-08 02:49 13.80931 125.78807 38908 ft 457 kts 14°
2026-05-08 02:50 13.87035 125.80636 38908 ft 457 kts 14°
2026-05-08 02:50 13.93164 125.82471 38908 ft 457 kts 14°
2026-05-08 02:51 13.99283 125.84306 38908 ft 457 kts 14°
2026-05-08 02:51 14.05415 125.86146 38908 ft 458 kts 14°
2026-05-08 02:52 14.11573 125.87995 38908 ft 458 kts 14°
2026-05-08 02:52 14.17693 125.89834 38909 ft 458 kts 14°
2026-05-08 02:53 14.23562 125.91601 38908 ft 457 kts 14°
2026-05-08 02:53 14.29669 125.93437 38908 ft 457 kts 14°
2026-05-08 02:54 14.35773 125.95274 38908 ft 457 kts 14°
2026-05-08 02:54 14.41917 125.97124 38909 ft 457 kts 14°
2026-05-08 02:55 14.51070 125.99860 38907 ft 457 kts 12°
2026-05-08 02:56 14.57302 126.01276 38913 ft 456 kts
2026-05-08 02:56 14.63498 126.02560 38923 ft 455 kts
2026-05-08 02:57 14.69760 126.03861 38929 ft 455 kts
2026-05-08 02:57 14.75956 126.05155 38929 ft 455 kts
2026-05-08 02:58 14.82171 126.06454 38929 ft 455 kts
2026-05-08 02:58 14.88401 126.07758 38929 ft 455 kts
2026-05-08 02:59 14.94621 126.09059 38929 ft 455 kts
2026-05-08 02:59 15.00821 126.10358 38929 ft 455 kts
2026-05-08 03:00 15.07032 126.11660 38933 ft 455 kts
2026-05-08 03:00 15.13286 126.12971 38932 ft 454 kts
2026-05-08 03:01 15.19452 126.14266 38932 ft 454 kts
2026-05-08 03:01 15.25645 126.15569 38934 ft 453 kts
2026-05-08 03:02 15.31837 126.16869 38932 ft 453 kts
2026-05-08 03:02 15.38025 126.18170 38933 ft 453 kts
2026-05-08 03:03 15.44229 126.19475 38932 ft 453 kts
2026-05-08 03:03 15.50447 126.20785 38939 ft 453 kts
2026-05-08 03:04 15.56631 126.22087 38942 ft 453 kts
2026-05-08 03:04 15.62837 126.23395 38943 ft 453 kts
2026-05-08 03:05 15.69013 126.24699 38943 ft 453 kts
2026-05-08 03:05 15.75196 126.26002 38947 ft 452 kts
2026-05-08 03:06 15.81392 126.27312 38947 ft 452 kts
2026-05-08 03:06 15.87540 126.28611 38950 ft 451 kts
2026-05-08 03:07 15.93735 126.29921 38944 ft 451 kts
2026-05-08 03:07 15.99888 126.31222 38937 ft 451 kts
2026-05-08 03:08 16.06024 126.32522 38931 ft 450 kts
2026-05-08 03:08 16.12211 126.33832 38930 ft 450 kts
2026-05-08 03:09 16.18343 126.35133 38932 ft 450 kts
2026-05-08 03:09 16.24518 126.36442 38935 ft 449 kts
2026-05-08 03:10 16.30627 126.37739 38936 ft 449 kts
2026-05-08 03:10 16.36798 126.39050 38937 ft 449 kts
2026-05-08 03:11 16.42917 126.40351 38936 ft 449 kts
2026-05-08 03:11 16.49042 126.41653 38938 ft 449 kts
2026-05-08 03:12 16.55185 126.42962 38938 ft 449 kts
2026-05-08 03:12 16.61308 126.44265 38940 ft 448 kts
2026-05-08 03:13 16.67396 126.45563 38942 ft 448 kts
2026-05-08 03:13 16.73556 126.46876 38944 ft 448 kts
2026-05-08 03:14 16.79664 126.48180 38945 ft 449 kts
2026-05-08 03:14 16.85772 126.49484 38946 ft 449 kts
2026-05-08 03:15 16.91900 126.50794 38941 ft 448 kts
2026-05-08 03:15 16.98020 126.52103 38934 ft 448 kts
2026-05-08 03:16 17.04136 126.53413 38930 ft 447 kts
2026-05-08 03:16 17.10218 126.54716 38931 ft 447 kts
2026-05-08 03:17 17.16362 126.56042 38931 ft 448 kts
2026-05-08 03:17 17.20415 126.56926 38932 ft 448 kts
2026-05-08 03:18 17.28589 126.58712 38936 ft 448 kts
2026-05-08 03:18 17.34687 126.60043 38935 ft 447 kts
2026-05-08 03:19 17.40776 126.61375 38937 ft 447 kts
2026-05-08 03:19 17.46899 126.62714 38939 ft 448 kts
2026-05-08 03:20 17.52981 126.64045 38940 ft 448 kts
2026-05-08 03:20 17.59144 126.65395 38940 ft 449 kts
2026-05-08 03:21 17.65265 126.66737 38942 ft 449 kts
2026-05-08 03:21 17.71365 126.68076 38944 ft 448 kts
2026-05-08 03:22 17.77490 126.69418 38944 ft 448 kts
2026-05-08 03:22 17.83570 126.70753 38946 ft 448 kts
2026-05-08 03:23 17.89680 126.72096 38948 ft 449 kts
2026-05-08 03:23 17.95812 126.73446 38947 ft 449 kts
2026-05-08 03:24 18.01950 126.74796 38949 ft 449 kts
2026-05-08 03:24 18.08045 126.76141 38950 ft 449 kts
2026-05-08 03:25 18.14205 126.77499 38950 ft 448 kts
2026-05-08 03:25 18.20287 126.78839 38950 ft 448 kts
2026-05-08 03:26 18.26427 126.80193 38950 ft 448 kts
2026-05-08 03:26 18.32537 126.81542 38950 ft 448 kts
2026-05-08 03:27 18.38641 126.82891 38950 ft 448 kts
2026-05-08 03:27 18.44773 126.84248 38950 ft 448 kts
2026-05-08 03:28 18.50866 126.85597 38950 ft 448 kts
2026-05-08 03:28 18.56984 126.86953 38950 ft 447 kts
2026-05-08 03:29 18.63055 126.88300 38950 ft 447 kts
2026-05-08 03:29 18.69187 126.89661 38950 ft 447 kts
2026-05-08 03:30 18.78334 126.91692 38950 ft 447 kts
2026-05-08 03:31 18.90533 126.94402 38950 ft 446 kts 10°
2026-05-08 03:32 18.99661 126.96435 38950 ft 446 kts 10°
2026-05-08 03:32 19.05733 126.97788 38955 ft 446 kts 10°
2026-05-08 03:33 19.11862 126.99156 38960 ft 447 kts 10°
2026-05-08 03:33 19.17968 127.00520 38965 ft 447 kts 10°
2026-05-08 03:34 19.24038 127.01876 38974 ft 446 kts 10°
2026-05-08 03:34 19.30133 127.03238 38972 ft 445 kts 10°
2026-05-08 03:35 19.36194 127.04593 38969 ft 444 kts 10°
2026-05-08 03:35 19.42228 127.05943 38978 ft 445 kts 10°
2026-05-08 03:36 19.48299 127.07304 38972 ft 445 kts 10°
2026-05-08 03:36 19.54401 127.08672 38966 ft 445 kts 10°
2026-05-08 03:37 19.60506 127.10043 38965 ft 444 kts 10°
2026-05-08 03:37 19.66546 127.11399 38965 ft 443 kts 10°
2026-05-08 03:38 19.72607 127.12762 38968 ft 442 kts 10°
2026-05-08 03:38 19.78611 127.14111 38966 ft 442 kts 10°
2026-05-08 03:39 19.84640 127.15468 38967 ft 442 kts 10°
2026-05-08 03:39 19.90664 127.16825 38958 ft 443 kts 10°
2026-05-08 03:40 19.96701 127.18186 38954 ft 442 kts 10°
2026-05-08 03:40 20.02742 127.19549 38951 ft 442 kts 10°
2026-05-08 03:41 20.08768 127.20911 38951 ft 441 kts 10°
2026-05-08 03:41 20.14796 127.22273 38951 ft 442 kts 10°
2026-05-08 03:42 20.20820 127.23635 38950 ft 442 kts 10°
2026-05-08 03:42 20.26863 127.25002 38950 ft 444 kts 10°
2026-05-08 03:43 20.32921 127.26375 38950 ft 443 kts 10°
2026-05-08 03:43 20.38950 127.27743 38950 ft 443 kts 10°
2026-05-08 03:44 20.44996 127.29114 38951 ft 443 kts 10°
2026-05-08 03:44 20.51044 127.30488 38956 ft 443 kts 10°
2026-05-08 03:45 20.57114 127.31866 38961 ft 445 kts 10°
2026-05-08 03:45 20.63150 127.33240 38963 ft 445 kts 10°
2026-05-08 03:46 20.69236 127.34626 38965 ft 445 kts 10°
2026-05-08 03:46 20.75286 127.36005 38965 ft 445 kts 10°
2026-05-08 03:47 20.81356 127.37389 38966 ft 445 kts 10°
2026-05-08 03:47 20.87412 127.38773 38966 ft 445 kts
2026-05-08 03:48 20.93446 127.40273 38968 ft 447 kts 14°
2026-05-08 03:48 20.99312 127.42577 38968 ft 450 kts 22°
2026-05-08 03:49 21.04861 127.45783 38971 ft 452 kts 30°
2026-05-08 03:49 21.09957 127.49712 38970 ft 453 kts 34°
2026-05-08 03:50 21.14972 127.53830 38970 ft 453 kts 35°
2026-05-08 03:50 21.19992 127.57953 38970 ft 454 kts 35°
2026-05-08 03:51 21.24990 127.62050 38970 ft 454 kts 34°
2026-05-08 03:51 21.30023 127.66178 38969 ft 455 kts 35°
2026-05-08 03:52 21.35031 127.70287 38971 ft 455 kts 34°
2026-05-08 03:52 21.40079 127.74431 38971 ft 454 kts 34°
2026-05-08 03:53 21.45101 127.78558 38970 ft 454 kts 34°
2026-05-08 03:53 21.50117 127.82684 38971 ft 455 kts 34°
2026-05-08 03:54 21.55142 127.86821 38972 ft 455 kts 34°
2026-05-08 03:54 21.60161 127.90955 38972 ft 456 kts 34°
2026-05-08 03:55 21.65183 127.95096 38971 ft 455 kts 34°
2026-05-08 03:55 21.70203 127.99240 38972 ft 456 kts 34°
2026-05-08 03:56 21.75240 128.03404 38971 ft 456 kts 34°
2026-05-08 03:56 21.80258 128.07553 38970 ft 456 kts 34°
2026-05-08 03:57 21.85280 128.11708 38971 ft 457 kts 34°
2026-05-08 03:57 21.90324 128.15884 38971 ft 457 kts 34°
2026-05-08 03:58 21.95360 128.20061 38971 ft 457 kts 34°
2026-05-08 03:58 22.00399 128.24245 38969 ft 457 kts 34°
2026-05-08 03:59 22.05420 128.28416 38970 ft 457 kts 34°
2026-05-08 03:59 22.10453 128.32600 38971 ft 457 kts 34°
2026-05-08 04:00 22.15496 128.36800 38970 ft 457 kts 34°
2026-05-08 04:00 22.20548 128.41007 38970 ft 457 kts 34°
2026-05-08 04:01 22.25573 128.45198 38972 ft 457 kts 34°
2026-05-08 04:01 22.30623 128.49412 38976 ft 457 kts 34°
2026-05-08 04:02 22.35628 128.53593 38979 ft 457 kts 34°
2026-05-08 04:02 22.40660 128.57802 38979 ft 457 kts 34°
2026-05-08 04:03 22.45660 128.61984 38979 ft 457 kts 34°
2026-05-08 04:03 22.53211 128.68312 38980 ft 457 kts 34°
2026-05-08 04:04 22.58245 128.72539 38982 ft 457 kts 34°
2026-05-08 04:04 22.63254 128.76746 38983 ft 456 kts 34°
2026-05-08 04:05 22.68274 128.80963 38984 ft 456 kts 34°
2026-05-08 04:05 22.73295 128.85187 38987 ft 456 kts 34°
2026-05-08 04:06 22.78319 128.89420 38986 ft 456 kts 34°
2026-05-08 04:06 22.83342 128.93655 38987 ft 457 kts 34°
2026-05-08 04:07 22.88340 128.97876 38987 ft 457 kts 34°
2026-05-08 04:07 22.93363 129.02124 38987 ft 457 kts 34°
2026-05-08 04:08 22.98365 129.06354 38979 ft 457 kts 34°
2026-05-08 04:08 23.03487 129.10439 38971 ft 456 kts 31°
2026-05-08 04:09 23.08688 129.14380 38972 ft 456 kts 31°
2026-05-08 04:09 23.13903 129.18337 38975 ft 456 kts 31°
2026-05-08 04:10 23.19117 129.22305 38974 ft 456 kts 31°
2026-05-08 04:10 23.24294 129.26253 38977 ft 456 kts 31°
2026-05-08 04:11 23.29477 129.30209 38978 ft 456 kts 31°
2026-05-08 04:11 23.34667 129.34175 38976 ft 456 kts 31°
2026-05-08 04:12 23.39838 129.38129 38979 ft 456 kts 31°
2026-05-08 04:12 23.45053 129.42122 38981 ft 456 kts 31°
2026-05-08 04:13 23.50229 129.46089 38975 ft 456 kts 31°
2026-05-08 04:13 23.55413 129.50066 38971 ft 456 kts 31°
2026-05-08 04:14 23.60597 129.54045 38969 ft 456 kts 31°
2026-05-08 04:14 23.65759 129.58014 38971 ft 456 kts 31°
2026-05-08 04:15 23.70967 129.62019 38972 ft 456 kts 31°
2026-05-08 04:15 23.76142 129.66005 38969 ft 456 kts 31°
2026-05-08 04:16 23.81318 129.69995 38970 ft 456 kts 31°
2026-05-08 04:16 23.86494 129.73988 38972 ft 456 kts 31°
2026-05-08 04:17 23.91687 129.77998 38972 ft 456 kts 31°
2026-05-08 04:17 23.96843 129.81985 38973 ft 456 kts 31°
2026-05-08 04:18 24.02032 129.86000 38971 ft 456 kts 31°
2026-05-08 04:18 24.07185 129.89993 38971 ft 456 kts 31°
2026-05-08 04:19 24.12399 129.94040 38973 ft 456 kts 31°
2026-05-08 04:19 24.17584 129.98065 38974 ft 456 kts 31°
2026-05-08 04:20 24.22764 130.02094 38972 ft 456 kts 31°
2026-05-08 04:20 24.27937 130.06122 38976 ft 456 kts 31°
2026-05-08 04:21 24.33116 130.10156 38973 ft 456 kts 31°
2026-05-08 04:21 24.38274 130.14130 38971 ft 455 kts 30°
2026-05-08 04:22 24.43516 130.18053 38971 ft 455 kts 30°
2026-05-08 04:22 24.48743 130.21971 38971 ft 454 kts 30°
2026-05-08 04:23 24.53953 130.25890 38970 ft 454 kts 29°
2026-05-08 04:23 24.59160 130.29814 38970 ft 454 kts 29°
2026-05-08 04:24 24.64372 130.33748 38970 ft 455 kts 30°
2026-05-08 04:24 24.69589 130.37691 38971 ft 455 kts 30°
2026-05-08 04:25 24.74767 130.41609 38971 ft 455 kts 30°
2026-05-08 04:25 24.79999 130.45572 38972 ft 454 kts 29°
2026-05-08 04:26 24.85198 130.49513 38980 ft 454 kts 29°
2026-05-08 04:26 24.90387 130.53451 38987 ft 454 kts 29°
2026-05-08 04:27 24.95602 130.57413 38989 ft 454 kts 29°
2026-05-08 04:27 25.00796 130.61363 38991 ft 455 kts 29°
2026-05-08 04:28 25.06018 130.65338 38992 ft 455 kts 30°
2026-05-08 04:28 25.11212 130.69298 38992 ft 454 kts 30°
2026-05-08 04:29 25.16414 130.73265 38992 ft 455 kts 30°
2026-05-08 04:29 25.21622 130.77243 38990 ft 454 kts 30°
2026-05-08 04:30 25.26806 130.81207 38990 ft 454 kts 30°
2026-05-08 04:30 25.32008 130.85190 38991 ft 454 kts 30°
2026-05-08 04:31 25.37185 130.89157 38993 ft 454 kts 29°
2026-05-08 04:31 25.42392 130.93150 38993 ft 454 kts 30°
2026-05-08 04:32 25.47577 130.97130 38992 ft 454 kts 30°
2026-05-08 04:32 25.52765 131.01120 38990 ft 454 kts 30°
2026-05-08 04:33 25.57934 131.05098 38993 ft 454 kts 30°
2026-05-08 04:33 25.63149 131.09117 38992 ft 454 kts 30°
2026-05-08 04:34 25.68307 131.13095 38990 ft 454 kts 29°
2026-05-08 04:34 25.73505 131.17111 38995 ft 454 kts 29°
2026-05-08 04:35 25.78677 131.21112 38996 ft 454 kts 29°
2026-05-08 04:35 25.83847 131.25116 38997 ft 454 kts 30°
2026-05-08 04:36 25.88885 131.29421 38997 ft 456 kts 33°
2026-05-08 04:36 25.93784 131.33855 38999 ft 455 kts 34°
2026-05-08 04:37 25.98675 131.38292 38995 ft 455 kts 33°
2026-05-08 04:37 26.03604 131.42764 38992 ft 455 kts 33°
2026-05-08 04:38 26.08487 131.47194 38997 ft 455 kts 33°
2026-05-08 04:38 26.13404 131.51660 38989 ft 455 kts 33°
2026-05-08 04:39 26.18286 131.56099 38995 ft 455 kts 34°
2026-05-08 04:39 26.23179 131.60555 38995 ft 455 kts 34°
2026-05-08 04:40 26.28098 131.65039 38993 ft 455 kts 34°
2026-05-08 04:40 26.32990 131.69504 38992 ft 455 kts 34°
2026-05-08 04:41 26.37889 131.73978 38998 ft 455 kts 34°
2026-05-08 04:41 26.42775 131.78447 38993 ft 454 kts 34°
2026-05-08 04:42 26.47650 131.82910 38996 ft 455 kts 34°
2026-05-08 04:42 26.52549 131.87401 38998 ft 455 kts 34°
2026-05-08 04:43 26.57406 131.91856 38999 ft 455 kts 34°
2026-05-08 04:43 26.62290 131.96344 38999 ft 455 kts 34°
2026-05-08 04:44 26.67153 132.00816 38995 ft 454 kts 34°
2026-05-08 04:44 26.72046 132.05324 38994 ft 454 kts 34°
2026-05-08 04:45 26.76931 132.09828 38990 ft 454 kts 34°
2026-05-08 04:45 26.81781 132.14302 38997 ft 455 kts 34°
2026-05-08 04:46 26.86678 132.18826 38992 ft 454 kts 33°
2026-05-08 04:46 26.91524 132.23308 38991 ft 454 kts 33°
2026-05-08 04:47 26.96415 132.27835 38994 ft 455 kts 34°
2026-05-08 04:47 27.01298 132.32362 38993 ft 455 kts 34°
2026-05-08 04:48 27.06146 132.36865 38989 ft 454 kts 34°
2026-05-08 04:48 27.11039 132.41414 38994 ft 454 kts 34°
2026-05-08 04:49 27.15908 132.45941 38991 ft 455 kts 34°
2026-05-08 04:49 27.20761 132.50462 38990 ft 455 kts 34°
2026-05-08 04:50 27.25616 132.54993 38992 ft 455 kts 34°
2026-05-08 04:50 27.30482 132.59535 38991 ft 455 kts 34°
2026-05-08 04:51 27.35339 132.64078 38988 ft 455 kts 34°
2026-05-08 04:51 27.40223 132.68649 38983 ft 457 kts 34°
2026-05-08 04:52 27.45112 132.73233 38987 ft 456 kts 34°
2026-05-08 04:52 27.49997 132.77815 38984 ft 456 kts 34°
2026-05-08 04:53 27.54850 132.82373 38985 ft 457 kts 34°
2026-05-08 04:53 27.59727 132.86963 38982 ft 457 kts 34°
2026-05-08 04:54 27.64623 132.91571 38982 ft 458 kts 34°
2026-05-08 04:54 27.69484 132.96158 38980 ft 457 kts 34°
2026-05-08 04:55 27.74358 133.00760 38977 ft 457 kts 34°
2026-05-08 04:55 27.79263 133.05397 38975 ft 459 kts 34°
2026-05-08 04:56 27.84125 133.10002 38978 ft 459 kts 34°
2026-05-08 04:56 27.89031 133.14653 38975 ft 459 kts 34°
2026-05-08 04:57 27.93901 133.19290 38977 ft 460 kts 34°
2026-05-08 04:57 27.98792 133.23959 38974 ft 460 kts 34°
2026-05-08 04:58 28.03675 133.28632 38970 ft 460 kts 34°
2026-05-08 04:58 28.08552 133.33301 38972 ft 461 kts 34°
2026-05-08 04:59 28.13461 133.38011 38973 ft 461 kts 34°
2026-05-08 04:59 28.18350 133.42708 38964 ft 460 kts 34°
2026-05-08 05:00 28.23203 133.47376 38962 ft 461 kts 34°
2026-05-08 05:00 28.28130 133.52119 38968 ft 461 kts 34°
2026-05-08 05:01 28.32997 133.56807 38969 ft 463 kts 34°
2026-05-08 05:01 28.37935 133.61574 38971 ft 465 kts 34°
2026-05-08 05:02 28.42847 133.66324 38967 ft 465 kts 34°
2026-05-08 05:02 28.47774 133.71095 38969 ft 464 kts 34°
2026-05-08 05:03 28.52659 133.75832 38970 ft 463 kts 34°
2026-05-08 05:03 28.57559 133.80588 38970 ft 464 kts 34°
2026-05-08 05:04 28.62483 133.85362 38970 ft 463 kts 34°
2026-05-08 05:04 28.67366 133.90103 38969 ft 464 kts 34°
2026-05-08 05:05 28.72293 133.94899 38970 ft 466 kts 34°
2026-05-08 05:05 28.77193 133.99680 38969 ft 466 kts 34°
2026-05-08 05:06 28.82126 134.04498 38970 ft 465 kts 34°
2026-05-08 05:06 28.87045 134.09305 38968 ft 467 kts 34°
2026-05-08 05:07 28.91940 134.14096 38958 ft 466 kts 34°
2026-05-08 05:07 28.96873 134.18935 38950 ft 467 kts 34°
2026-05-08 05:08 29.01804 134.23773 38952 ft 468 kts 34°
2026-05-08 05:08 29.06741 134.28624 38950 ft 469 kts 34°
2026-05-08 05:09 29.11676 134.33484 38953 ft 469 kts 34°
2026-05-08 05:09 29.16609 134.38345 38952 ft 469 kts 34°
2026-05-08 05:10 29.24050 134.45689 38951 ft 470 kts 34°
2026-05-08 05:11 29.28995 134.50581 38951 ft 470 kts 34°
2026-05-08 05:11 29.33935 134.55473 38952 ft 470 kts 34°
2026-05-08 05:12 29.38871 134.60365 38952 ft 471 kts 34°
2026-05-08 05:12 29.43811 134.65271 38951 ft 471 kts 34°
2026-05-08 05:13 29.48780 134.70206 38950 ft 472 kts 35°
2026-05-08 05:13 29.53734 134.75140 38948 ft 471 kts 35°
2026-05-08 05:14 29.58682 134.80074 38941 ft 472 kts 35°
2026-05-08 05:14 29.63631 134.85014 38940 ft 473 kts 34°
2026-05-08 05:15 29.68613 134.89990 38941 ft 473 kts 34°
2026-05-08 05:15 29.73576 134.94960 38939 ft 474 kts 35°
2026-05-08 05:16 29.78535 134.99928 38936 ft 475 kts 35°
2026-05-08 05:16 29.83507 135.04923 38936 ft 474 kts 35°
2026-05-08 05:17 29.88462 135.09901 38938 ft 474 kts 35°
2026-05-08 05:17 29.93407 135.14877 38933 ft 474 kts 35°
2026-05-08 05:18 29.98383 135.19894 38934 ft 474 kts 35°
2026-05-08 05:18 30.03365 135.24927 38925 ft 475 kts 34°
2026-05-08 05:19 30.08331 135.29950 38927 ft 475 kts 35°
2026-05-08 05:19 30.13301 135.34973 38923 ft 476 kts 34°
2026-05-08 05:20 30.18332 135.39935 38926 ft 475 kts 33°
2026-05-08 05:20 30.23356 135.44876 38926 ft 475 kts 34°
2026-05-08 05:21 30.28356 135.49809 38924 ft 476 kts 34°
2026-05-08 05:21 30.33373 135.54776 38925 ft 476 kts 34°
2026-05-08 05:22 30.38425 135.59790 38925 ft 476 kts 34°
2026-05-08 05:22 30.43438 135.64767 38923 ft 477 kts 34°
2026-05-08 05:23 30.48461 135.69763 38922 ft 478 kts 34°
2026-05-08 05:23 30.53511 135.74791 38929 ft 479 kts 34°
2026-05-08 05:24 30.58570 135.79842 38933 ft 479 kts 34°
2026-05-08 05:24 30.63616 135.84880 38930 ft 480 kts 34°
2026-05-08 05:25 30.68649 135.89918 38927 ft 479 kts 34°
2026-05-08 05:25 30.73693 135.94969 38933 ft 479 kts 34°
2026-05-08 05:26 30.78740 136.00029 38916 ft 480 kts 34°
2026-05-08 05:26 30.83808 136.05122 38921 ft 481 kts 34°
2026-05-08 05:27 30.88838 136.10184 38917 ft 482 kts 34°
2026-05-08 05:27 30.93928 136.15314 38917 ft 481 kts 34°
2026-05-08 05:28 30.98966 136.20398 38910 ft 482 kts 34°
2026-05-08 05:28 31.04016 136.25502 38893 ft 482 kts 34°
2026-05-08 05:29 31.09079 136.30623 38902 ft 482 kts 34°
2026-05-08 05:29 31.14162 136.35776 38904 ft 482 kts 34°
2026-05-08 05:30 31.19222 136.40912 38899 ft 482 kts 34°
2026-05-08 05:30 31.24279 136.46056 38907 ft 483 kts 34°
2026-05-08 05:31 31.29314 136.51186 38904 ft 482 kts 34°
2026-05-08 05:31 31.34370 136.56342 38909 ft 482 kts 34°
2026-05-08 05:32 31.39430 136.61514 38911 ft 483 kts 34°
2026-05-08 05:32 31.44483 136.66684 38891 ft 483 kts 34°
2026-05-08 05:33 31.49560 136.71880 38884 ft 484 kts 34°
2026-05-08 05:33 31.54643 136.77098 38879 ft 486 kts 35°
2026-05-08 05:34 31.59717 136.82320 38894 ft 486 kts 35°
2026-05-08 05:34 31.64799 136.87566 38884 ft 486 kts 35°
2026-05-08 05:35 31.69857 136.92789 38885 ft 485 kts 35°
2026-05-08 05:35 31.74893 136.97994 38876 ft 486 kts 35°
2026-05-08 05:36 31.79994 137.03281 38872 ft 486 kts 35°
2026-05-08 05:36 31.85070 137.08542 38884 ft 488 kts 35°
2026-05-08 05:37 31.90142 137.13812 38888 ft 488 kts 36°
2026-05-08 05:37 31.95224 137.19104 38886 ft 487 kts 36°
2026-05-08 05:38 32.00270 137.24367 38887 ft 487 kts 35°
2026-05-08 05:38 32.05345 137.29666 38887 ft 487 kts 35°
2026-05-08 05:39 32.10411 137.34955 38886 ft 489 kts 36°
2026-05-08 05:39 32.15489 137.40279 38887 ft 488 kts 35°
2026-05-08 05:40 32.20559 137.45590 38877 ft 489 kts 35°
2026-05-08 05:40 32.25639 137.50926 38875 ft 490 kts 35°
2026-05-08 05:41 32.30722 137.56276 38883 ft 491 kts 36°
2026-05-08 05:41 32.35817 137.61642 38880 ft 490 kts 35°
2026-05-08 05:42 32.40891 137.67000 38880 ft 490 kts 36°
2026-05-08 05:42 32.46005 137.72401 38873 ft 492 kts 36°
2026-05-08 05:43 32.51088 137.77785 38872 ft 492 kts 37°
2026-05-08 05:43 32.56200 137.83205 38871 ft 493 kts 36°
2026-05-08 05:44 32.61279 137.88605 38870 ft 492 kts 36°
2026-05-08 05:44 32.66367 137.94012 38858 ft 492 kts 37°
2026-05-08 05:45 32.71458 137.99440 38868 ft 493 kts 36°
2026-05-08 05:45 32.76564 138.04894 38858 ft 493 kts 37°
2026-05-08 05:46 32.81643 138.10327 38849 ft 493 kts 37°
2026-05-08 05:46 32.86745 138.15791 38838 ft 494 kts 37°
2026-05-08 05:47 32.91768 138.21381 38841 ft 495 kts 39°
2026-05-08 05:47 32.96696 138.27071 38835 ft 495 kts 39°
2026-05-08 05:48 33.01660 138.32793 38831 ft 496 kts 39°
2026-05-08 05:48 33.06595 138.38474 38822 ft 495 kts 39°
2026-05-08 05:49 33.11536 138.44170 38815 ft 496 kts 39°
2026-05-08 05:49 33.16500 138.49895 38823 ft 496 kts 39°
2026-05-08 05:50 33.21474 138.55641 38821 ft 497 kts 38°
2026-05-08 05:50 33.26403 138.61343 38815 ft 497 kts 39°
2026-05-08 05:51 33.31373 138.67108 38810 ft 497 kts 39°
2026-05-08 05:51 33.36333 138.72867 38807 ft 497 kts 39°
2026-05-08 05:52 33.41266 138.78606 38814 ft 497 kts 39°
2026-05-08 05:52 33.46235 138.84398 38812 ft 498 kts 39°
2026-05-08 05:53 33.51203 138.90198 38804 ft 499 kts 39°
2026-05-08 05:53 33.56160 138.96001 38801 ft 499 kts 39°
2026-05-08 05:54 33.61126 139.01820 38803 ft 500 kts 39°
2026-05-08 05:54 33.66097 139.07643 38804 ft 500 kts 39°
2026-05-08 05:55 33.71083 139.13490 38811 ft 498 kts 39°
2026-05-08 05:55 33.76026 139.19304 38799 ft 498 kts 39°
2026-05-08 05:56 33.80968 139.25127 38813 ft 498 kts 39°
2026-05-08 05:56 33.85910 139.30965 38814 ft 498 kts 39°
2026-05-08 05:57 33.90846 139.36804 38812 ft 498 kts 39°
2026-05-08 05:57 33.95767 139.42633 38807 ft 499 kts 39°